This is the latest recevied weather packets stored in our database for station/object KB4JHU-15. If no packets are shown the sender has not sent any weather packets the latest 10 day(s).
| Time | Temp. | Humidity | Pressure | Rain* | Wind** | Luminosity | Snow |
|---|---|---|---|---|---|---|---|
| 1787977323 | 22.78° C | 79% | - | 0 mm | - | - | - |
| 1787975522 | 23.89° C | 76% | - | 0 mm | - | - | - |
| 1787973721 | 23.33° C | 76% | - | 0 mm | - | - | - |
| 1787971920 | 23.89° C | 76% | - | 0 mm | - | - | - |
| 1787970119 | 24.44° C | 76% | - | 0 mm | - | - | - |
| 1787968318 | 25° C | 73% | - | 0 mm | - | - | - |
| 1787966517 | 26.11° C | 67% | - | 0 mm | - | - | - |
| 1787964716 | 27.22° C | 60% | - | 0 mm | - | - | - |
| 1787962915 | 29.44° C | 53% | - | 0 mm | - | - | - |
| 1787961114 | 30.56° C | 48% | - | 0 mm | - | - | - |
| 1787959313 | 31.67° C | 45% | - | 0 mm | - | - | - |
| 1787957512 | 31.67° C | 42% | - | 0 mm | - | - | - |
| 1787955711 | 32.22° C | 42% | - | 0 mm | - | - | - |
| 1787953910 | 31.11° C | 45% | - | 0 mm | - | - | - |
| 1787952109 | 30.56° C | 45% | - | 0 mm | - | - | - |
| 1787950308 | 32.78° C | 41% | - | 0 mm | - | - | - |
| 1787948507 | 32.22° C | 41% | - | 0 mm | - | - | - |
| 1787946706 | 32.22° C | 45% | - | 0 mm | - | - | - |
| 1787944905 | 32.22° C | 44% | - | 0 mm | - | - | - |
| 1787943104 | 32.22° C | 41% | - | 0 mm | - | - | - |
| 1787941303 | 32.22° C | 46% | - | 0 mm | - | - | - |
| 1787939502 | 30.56° C | 48% | - | 0 mm | - | - | - |
| 1787937701 | 30° C | 54% | - | 0 mm | - | - | - |
| 1787935900 | 31.11° C | 50% | - | 0 mm | - | - | - |
| 1787934099 | 30.56° C | 51% | - | 0 mm | - | - | - |
* Rain latest hour (hover to see other rain measurements)
** Current wind speed in m/s (hover to see current wind gust speed)